Weather in Verkhnyaya Toyma

Russia / Arkhangel'skaya Oblast'     62°14′05″N   44°59′56″E
temp.,
°C
wind,
m/s
gust,
m/s
humid.,
%
clouds,
%
prec.,
mm/h
press.,
hPa
HPBL,
m
11 may, tue
tue1100:00+5sse237167 0.0 102743
03:00+5s2973100 0.0 1027212
06:00+7s31168100 0.0 1027351
09:00+9s387097 0.0 1027304
12:00+17sw4752100 0.0 1027970
15:00+19sw4849100 0.0 10261534
18:00+19sw485490 0.0 1026783
21:00+13ssw2881100 0.0 1027140
12 may, wed
wed1200:00+11ssw2108842 0.0 1028205
03:00+9sw249256 0.0 102880
06:00+13sw2979100 0.0 1028288
09:00+18sw3656100 0.0 1028654
12:00+22wsw464119 0.0 10271336
15:00+24wsw35375 0.0 10261538
18:00+23sw23475 0.0 1026148
21:00+16ssw22702 0.0 102613
13 may, thu
thu1300:00+13sse22760 0.0 102611
03:00+12sse22820 0.0 102615
06:00+15s24660 0.0 1026173
09:00+20ssw354840 0.0 1025660
12:00+24ssw364226 0.0 10232239
15:00+21sse225854 0.0 102259
18:00+21ssw255777 0.0 1021253
21:00+17sse227287 0.0 102014
14 may, fri
fri1400:00+15se118025 0.0 102011
03:00+13se238853 0.0 101949
06:00+16sse277630 0.0 1019255
09:00+19s356653 0.3 1018917
12:00+19sw3566100 0.1 10171139
15:00+19sw367332 0.2 1017772
18:00+18sw26700 0.1 1016265
21:00+15s24775 0.1 101559
15 may, sat
sat1500:00+13sw1182100 0.0 101611
03:00+12s118422 0.0 101610
06:00+15sse2368100 0.0 1016151
09:00+19s2459100 0.0 1014551
12:00+17ese2575100 0.3 1014336
15:00+21sse376282 0.3 1012852
18:00+22sse2668100 0.3 1009595
21:00+16se2696100 5.8 1007147